| time (UTC) | temp C | wind direction | speed KPH | gust KPH | rain 1hr cm | rain 24hr cm | rain mn cm | humidity % | barometer mb |
| 20260510020054 | 11 | 0 | 0.0 | 1.6 | 0.00 | 0.00 | 0.00 | 53 | 1008.9 |
| 20260510014554 | 12 | 0 | 0.0 | 0.0 | 0.00 | 0.00 | 0.00 | 52 | 1008.5 |
| 20260510013105 | 13 | 0 | 0.0 | 1.6 | 0.00 | 0.00 | 0.00 | 46 | 1008.2 |
| 20260510011553 | 13 | 0 | 0.0 | 1.6 | 0.00 | 0.00 | 0.00 | 43 | 1007.8 |
| 20260510010105 | 15 | 0 | 0.0 | 1.6 | 0.00 | 0.00 | 0.00 | 40 | 1007.4 |
| 20260510004600 | 15 | 0 | 0.0 | 8.0 | 0.00 | 0.00 | 0.00 | 38 | 1007.2 |
| 20260510003056 | 16 | 0 | 0.0 | 6.4 | 0.00 | 0.00 | 0.00 | 37 | 1006.9 |
| 20260510001552 | 16 | 226 | 4.8 | 12.9 | 0.00 | 0.00 | 0.00 | 36 | 1006.6 |
| 20260510000108 | 17 | 170 | 1.6 | 12.9 | 0.00 | 0.00 | 0.00 | 36 | 1006.3 |
| 20260509234604 | 17 | 0 | 1.6 | 11.3 | 0.00 | 0.00 | 0.00 | 37 | 1006.1 |
| 20260509233053 | 17 | 295 | 3.2 | 11.3 | 0.00 | 0.00 | 0.00 | 36 | 1006.1 |
| 20260509231557 | 18 | 48 | 3.2 | 9.7 | 0.00 | 0.00 | 0.00 | 36 | 1005.9 |
| 20260509230053 | 18 | 275 | 1.6 | 14.5 | 0.00 | 0.00 | 0.00 | 36 | 1005.7 |
| 20260509224554 | 18 | 302 | 1.6 | 8.0 | 0.00 | 0.00 | 0.00 | 35 | 1005.5 |
| 20260509223051 | 18 | 271 | 1.6 | 16.1 | 0.00 | 0.00 | 0.00 | 35 | 1005.4 |
| 20260509221608 | 18 | 347 | 6.4 | 14.5 | 0.00 | 0.00 | 0.00 | 33 | 1005.0 |
| 20260509214551 | 18 | 273 | 3.2 | 17.7 | 0.00 | 0.00 | 0.00 | 34 | 1004.6 |
| 20260509213053 | 19 | 310 | 4.8 | 16.1 | 0.00 | 0.00 | 0.00 | 35 | 1004.3 |
| 20260509211554 | 19 | 348 | 4.8 | 17.7 | 0.00 | 0.00 | 0.00 | 35 | 1004.0 |
| 20260509210059 | 19 | 39 | 6.4 | 17.7 | 0.00 | 0.00 | 0.00 | 36 | 1004.1 |
| 20260509204559 | 19 | 292 | 1.6 | 17.7 | 0.00 | 0.00 | 0.00 | 37 | 1003.8 |
| 20260509203055 | 20 | 257 | 6.4 | 16.1 | 0.00 | 0.00 | 0.00 | 37 | 1003.5 |
| 20260509201558 | 20 | 291 | 8.0 | 19.3 | 0.00 | 0.00 | 0.00 | 35 | 1003.5 |
| 20260509200105 | 20 | 302 | 4.8 | 16.1 | 0.00 | 0.00 | 0.00 | 35 | 1003.2 |
| 20260509194556 | 20 | 276 | 16.1 | 30.6 | 0.00 | 0.00 | 0.00 | 31 | 1002.9 |
| 20260509193108 | 20 | 278 | 19.3 | 33.8 | 0.00 | 0.00 | 0.00 | 31 | 1002.7 |
| 20260509191612 | 20 | 251 | 16.1 | 37.0 | 0.00 | 0.00 | 0.00 | 32 | 1002.6 |
| 20260509190112 | 20 | 274 | 11.3 | 25.7 | 0.00 | 0.00 | 0.00 | 35 | 1002.4 |
| 20260509184555 | 21 | 277 | 11.3 | 29.0 | 0.00 | 0.00 | 0.00 | 33 | 1002.2 |
| 20260509183054 | 20 | 285 | 6.4 | 29.0 | 0.00 | 0.00 | 0.00 | 35 | 1002.0 |
| 20260509181555 | 20 | 297 | 6.4 | 22.5 | 0.00 | 0.00 | 0.00 | 33 | 1002.0 |
| 20260509180054 | 20 | 262 | 14.5 | 22.5 | 0.00 | 0.00 | 0.00 | 34 | 1001.9 |
| 20260509174554 | 20 | 269 | 14.5 | 24.1 | 0.00 | 0.00 | 0.00 | 33 | 1001.9 |
| 20260509173104 | 20 | 252 | 11.3 | 22.5 | 0.00 | 0.00 | 0.00 | 33 | 1002.1 |
| 20260509171606 | 19 | 315 | 12.9 | 32.2 | 0.00 | 0.00 | 0.00 | 34 | 1002.2 |
| 20260509170055 | 18 | 285 | 17.7 | 40.2 | 0.00 | 0.00 | 0.00 | 34 | 1002.3 |
| 20260509164556 | 17 | 253 | 12.9 | 22.5 | 0.00 | 0.00 | 0.00 | 37 | 1002.5 |
| 20260509163059 | 17 | 276 | 6.4 | 20.9 | 0.00 | 0.00 | 0.00 | 38 | 1002.7 |
| 20260509161553 | 16 | 287 | 8.0 | 17.7 | 0.00 | 0.00 | 0.00 | 38 | 1002.8 |
| 20260509160054 | 17 | 292 | 4.8 | 17.7 | 0.00 | 0.00 | 0.00 | 38 | 1003.1 |
| 20260509154552 | 16 | 276 | 4.8 | 11.3 | 0.00 | 0.00 | 0.00 | 37 | 1003.1 |
| 20260509153049 | 17 | 250 | 9.7 | 22.5 | 0.00 | 0.00 | 0.00 | 37 | 1003.0 |
| 20260509151558 | 17 | 249 | 8.0 | 14.5 | 0.00 | 0.00 | 0.00 | 42 | 1002.9 |
| 20260509150054 | 16 | 285 | 4.8 | 14.5 | 0.00 | 0.00 | 0.00 | 45 | 1002.5 |
| 20260509144553 | 16 | 273 | 6.4 | 11.3 | 0.00 | 0.00 | 0.00 | 47 | 1002.1 |
| 20260509143049 | 16 | 285 | 6.4 | 9.7 | 0.00 | 0.00 | 0.00 | 49 | 1002.0 |
| 20260509141554 | 15 | 271 | 4.8 | 9.7 | 0.00 | 0.00 | 0.00 | 53 | 1002.2 |
| 20260509140054 | 15 | 277 | 4.8 | 9.7 | 0.00 | 0.00 | 0.00 | 53 | 1002.0 |
| 20260509134601 | 15 | 257 | 4.8 | 14.5 | 0.00 | 0.00 | 0.00 | 54 | 1001.8 |
| 20260509133053 | 15 | 270 | 9.7 | 16.1 | 0.00 | 0.00 | 0.00 | 55 | 1001.9 |
| 20260509131609 | 14 | 281 | 8.0 | 16.1 | 0.00 | 0.00 | 0.00 | 60 | 1002.0 |
| 20260509130104 | 14 | 280 | 9.7 | 20.9 | 0.00 | 0.00 | 0.00 | 61 | 1001.8 |
| 20260509124551 | 14 | 269 | 3.2 | 14.5 | 0.00 | 0.00 | 0.00 | 66 | 1001.6 |
| 20260509123101 | 13 | 240 | 4.8 | 12.9 | 0.00 | 0.00 | 0.00 | 69 | 1001.6 |
| 20260509121552 | 13 | 229 | 4.8 | 12.9 | 0.00 | 0.00 | 0.00 | 75 | 1001.6 |
| 20260509120051 | 12 | 285 | 6.4 | 11.3 | 0.00 | 0.00 | 0.00 | 78 | 1001.7 |
| 20260509114608 | 12 | 285 | 6.4 | 11.3 | 0.00 | 0.00 | 0.00 | 80 | 1001.5 |
| 20260509113105 | 11 | 253 | 6.4 | 9.7 | 0.00 | 0.00 | 0.00 | 82 | 1001.4 |
| 20260509111552 | 11 | 256 | 4.8 | 9.7 | 0.00 | 0.00 | 0.00 | 83 | 1001.2 |
| 20260509110104 | 11 | 232 | 6.4 | 14.5 | 0.00 | 0.00 | 0.00 | 82 | 1001.3 |
| 20260509104600 | 11 | 266 | 4.8 | 14.5 | 0.00 | 0.00 | 0.00 | 82 | 1000.9 |
| 20260509103054 | 11 | 252 | 6.4 | 16.1 | 0.00 | 0.00 | 0.00 | 81 | 1000.7 |
| 20260509101552 | 12 | 235 | 6.4 | 12.9 | 0.00 | 0.00 | 0.00 | 81 | 1000.5 |
| 20260509100054 | 12 | 250 | 9.7 | 16.1 | 0.00 | 0.00 | 0.00 | 80 | 1000.7 |
| 20260509094610 | 12 | 237 | 6.4 | 17.7 | 0.00 | 0.00 | 0.00 | 79 | 1000.8 |
| 20260509093054 | 12 | 266 | 6.4 | 14.5 | 0.00 | 0.00 | 0.00 | 79 | 1001.2 |
| 20260509091556 | 12 | 259 | 8.0 | 16.1 | 0.00 | 0.00 | 0.00 | 78 | 1001.2 |
| 20260509084600 | 12 | 218 | 9.7 | 20.9 | 0.00 | 0.00 | 0.00 | 78 | 1001.0 |
| 20260509083052 | 12 | 255 | 11.3 | 20.9 | 0.00 | 0.00 | 0.00 | 78 | 1000.9 |
| 20260509081554 | 12 | 262 | 8.0 | 16.1 | 0.00 | 0.00 | 0.00 | 78 | 1001.1 |
| 20260509080053 | 12 | 243 | 11.3 | 17.7 | 0.00 | 0.00 | 0.00 | 77 | 1001.1 |
| 20260509074553 | 12 | 257 | 8.0 | 17.7 | 0.00 | 0.00 | 0.00 | 76 | 1001.2 |
| 20260509073051 | 12 | 235 | 9.7 | 19.3 | 0.00 | 0.00 | 0.00 | 75 | 1001.3 |
| 20260509071551 | 13 | 240 | 8.0 | 19.3 | 0.00 | 0.00 | 0.00 | 73 | 1001.3 |
| 20260509070106 | 13 | 205 | 8.0 | 20.9 | 0.00 | 0.00 | 0.00 | 71 | 1001.4 |
| 20260509064553 | 13 | 273 | 8.0 | 17.7 | 0.00 | 0.00 | 0.00 | 69 | 1001.6 |
| 20260509063052 | 13 | 257 | 9.7 | 22.5 | 0.00 | 0.00 | 0.00 | 67 | 1001.8 |
| 20260509061607 | 13 | 251 | 9.7 | 20.9 | 0.00 | 0.00 | 0.00 | 65 | 1002.0 |
| 20260509060052 | 13 | 250 | 12.9 | 22.5 | 0.00 | 0.00 | 0.00 | 62 | 1002.4 |
| 20260509054616 | 13 | 240 | 11.3 | 24.1 | 0.00 | 0.00 | 0.00 | 60 | 1002.4 |
| 20260509053142 | 13 | 207 | 6.4 | 19.3 | 0.00 | 0.00 | 0.00 | 58 | 1002.6 |
| 20260509051555 | 14 | 253 | 8.0 | 16.1 | 0.00 | 0.00 | 0.00 | 57 | 1002.8 |
| 20260509050056 | 13 | 245 | 4.8 | 11.3 | 0.00 | 0.00 | 0.00 | 62 | 1003.0 |
| 20260509044553 | 12 | 245 | 3.2 | 4.8 | 0.00 | 0.00 | 0.00 | 70 | 1003.0 |
| 20260509043057 | 11 | 240 | 0.0 | 1.6 | 0.00 | 0.00 | 0.00 | 74 | 1002.8 |
| 20260509041554 | 11 | 68 | 0.0 | 1.6 | 0.00 | 0.00 | 0.00 | 73 | 1003.0 |
| 20260509040112 | 12 | 0 | 0.0 | 3.2 | 0.00 | 0.00 | 0.00 | 72 | 1003.1 |
| 20260509034619 | 12 | 0 | 1.6 | 6.4 | 0.00 | 0.00 | 0.00 | 70 | 1003.0 |
| 20260509033055 | 12 | 0 | 0.0 | 4.8 | 0.00 | 0.00 | 0.00 | 70 | 1003.0 |
| 20260509031553 | 12 | 0 | 0.0 | 3.2 | 0.00 | 0.00 | 0.00 | 68 | 1003.0 |
| 20260509030109 | 12 | 0 | 0.0 | 1.6 | 0.00 | 0.00 | 0.00 | 66 | 1003.3 |
| 20260509024552 | 12 | 0 | 0.0 | 1.6 | 0.00 | 0.00 | 0.00 | 64 | 1003.4 |
| 20260509023054 | 12 | 96 | 0.0 | 4.8 | 0.00 | 0.00 | 0.00 | 62 | 1003.5 |
| 20260509021556 | 13 | 0 | 0.0 | 3.2 | 0.00 | 0.00 | 0.00 | 60 | 1003.5 |